Location: Marcé
(47.5801°N, 0.3280°W)
Time: 01:18:11
(UTC+01:00)

BlueWalker 3 - Visible Passes

Search period start: 01 December 2022 00:00
Search period end: 11 December 2022 00:00
Orbit: 500 x 519 km, 53.2° (Epoch: 30 November)

Date Brightness Start Highest point End Pass type
(mag) Time Alt. Az. Time Alt. Az. Time Alt. Az.
01 Dec 2.9 18:54:58 10° WNW 18:58:37 35° N 18:59:38 30° NNE visible
01 Dec 5.0 20:34:03 10° WNW 20:34:27 12° WNW 20:34:27 12° WNW visible
02 Dec 2.9 18:36:37 10° WNW 18:40:15 35° N 18:41:59 23° NE visible
02 Dec 4.5 20:15:41 10° WNW 20:16:48 18° NW 20:16:48 18° NW visible
03 Dec 2.9 18:18:15 10° WNW 18:21:53 35° N 18:24:20 18° NE visible
03 Dec 3.9 19:57:17 10° WNW 19:59:10 25° NW 19:59:10 25° NW visible
04 Dec 2.9 17:59:53 10° WNW 18:03:32 35° N 18:06:44 12° ENE visible
04 Dec 3.1 19:38:54 10° WNW 19:41:33 36° NNW 19:41:33 36° NNW visible
05 Dec 2.9 17:41:31 10° WNW 17:45:09 35° N 17:48:46 10° ENE visible
05 Dec 2.3 19:20:31 10° WNW 19:24:00 51° N 19:24:00 51° N visible
06 Dec 2.1 19:02:06 10° WNW 19:05:58 55° NNE 19:06:30 49° NE visible
06 Dec 5.2 20:40:56 10° WNW 20:41:20 12° WNW 20:41:20 12° WNW visible
07 Dec 2.1 18:43:42 10° WNW 18:47:33 57° NNE 18:49:06 32° E visible
07 Dec 4.6 20:22:32 10° WNW 20:23:56 19° W 20:23:56 19° W visible
08 Dec 2.0 18:25:17 10° WNW 18:29:10 59° NNE 18:31:50 19° E visible
08 Dec 3.9 20:04:09 10° WNW 20:06:41 29° WSW 20:06:41 29° WSW visible
09 Dec 2.0 18:06:51 10° WNW 18:10:45 61° NNE 18:14:36 10° ESE visible
09 Dec 3.4 19:45:45 10° WNW 19:49:16 32° SW 19:49:36 32° SSW visible
10 Dec 2.0 17:48:25 10° WNW 17:52:19 63° NNE 17:56:12 10° ESE visible
10 Dec 3.7 19:27:21 10° WNW 19:30:48 30° SW 19:32:45 19° S visible
